APSTAR-6E

Last updated on Fri Jul 11 2025 00:02:46 GMT+0000 (Coordinated Universal Time)

1 55239U 23005A 25191.44547551 -.00000306 00000+0 00000+0 0 9995 2 55239 0.0630 244.6034 0003137 298.6704 39.6937 1.00266265 15267
UTC large
Height (km)
Speed (km/s)
/
Latitude / Longitude
Inclination (degrees)
Orbital Period (minutes)
Azimuth
Elevation
Range (km)
Doppler Factor

Next 0 passes for location: London (51.5072 / 0.1276)

Sorry there are no passes over London.